Location: *
(4.2000°S, 34.4333°E)
Time: 10:55:11
(UTC+00:00)

Daily predictions for brighter satellites

Satellite Brightness Start Highest point End
(mag) Time Altitude Azimuth Time Altitude Azimuth Time Altitude Azimuth
Cosmos 1452 Rocket 4.4 15:51:14 10° SSE 15:55:39 27° ESE 16:00:03 10° NE
Cosmos 2227 Rocket 2.8 15:53:04 10° SSW 15:58:39 64° WNW 16:04:13 10° N
YAOGAN 6 3.8 15:58:21 10° SE 16:01:12 22° E 16:04:02 10° NNE
Cosmos 2237 4.4 15:57:30 10° N 16:03:00 50° ENE 16:08:30 10° SSE
Cosmos 2360 Rocket 2.2 16:02:40 10° N 16:08:16 66° ENE 16:13:53 10° SSE
Cosmos 2297 Rocket 3.5 16:03:16 10° SSW 16:08:38 45° WNW 16:14:00 10° N
Nadezhda 1 Rocket 4.4 16:05:17 10° S 16:11:21 67° W 16:17:21 10° N
Hubble Space Telescope 0.8 16:07:25 10° SW 16:11:33 71° SSE 16:15:23 12° ENE
Cosmos 1536 Rocket 3.6 16:08:01 10° N 16:12:15 54° E 16:16:32 10° SSE
Cosmos 2322 4.2 16:09:07 10° N 16:14:19 38° ENE 16:19:32 10° SE
Maqsat-B 4.3 16:10:26 10° W 16:14:53 62° N 16:30:01 13° ENE
COSMOS 2428 4.0 16:13:25 10° NNE 16:17:16 19° ENE 16:20:41 11° ESE
Cosmos 2184 Rocket 4.0 16:14:53 10° N 16:21:07 63° E 16:27:25 10° SSE
NOAA 12 4.4 16:17:33 10° S 16:22:46 70° WSW 16:27:57 10° NNW
GP-B 3.0 16:18:27 10° NNE 16:22:49 65° E 16:27:15 10° S
Cosmos 405 4.5 16:19:37 10° NNW 16:22:53 39° W 16:26:10 10° SSW
BLOCK DM-SL R/B 3.4 16:17:35 10° W 16:23:59 56° N 16:26:58 17° ENE
CZ-4 R/B 1.2 16:21:00 10° SSE 16:24:48 66° E 16:28:38 10° N
Maqsat-H 3.4 16:20:54 10° W 16:25:32 61° N 16:39:20 16° ENE
Ariane Rocket 4.2 16:25:54 17° E 16:27:26 19° ENE 16:30:58 10° NNE
CSL-04 Rocket 3.7 16:26:48 10° SSE 16:32:07 58° ENE 16:37:29 10° N
ADEOS Rocket 4.1 16:26:19 10° NE 16:33:08 35° ESE 16:39:40 10° SSE
Ariane H10+ 3.9 16:30:28 10° NW 16:34:08 37° NNE 16:41:47 19° ENE
Cosmos 405 Rocket 3.2 16:31:33 10° SSW 16:35:14 60° W 16:38:51 10° N
Cosmos 2251 Rocket 3.4 16:30:08 10° N 16:35:25 71° ENE 16:40:43 10° SSE
Cosmos 1544 Rocket 3.8 16:31:58 10° SSE 16:36:14 44° E 16:40:28 10° NNE
Cosmos 1455 Rocket 3.0 16:31:55 10° S 16:36:15 60° E 16:40:34 10° NNE
CZ-2C R/B 3.6 16:32:04 10° NNE 16:36:27 66° ESE 16:40:55 10° S
Orbus 7S 2.8 16:32:47 10° WNW 16:37:37 81° NNE 16:38:37 37° ESE
ARIANE 5 R/B 4.4 16:35:51 10° NW 16:38:52 27° NNE 16:42:57 19° ENE
CSL-04 Debris 4.0 16:36:55 10° SSE 16:42:19 77° ENE 16:47:40 10° N
Cosmos 1818 3.5 16:37:29 10° SSW 16:42:48 60° ESE 16:47:36 13° NNE
CZ-3C R/B 2.5 16:42:32 10° SSW 16:43:27 14° S 16:43:27 14° S
Cosmos 2327 Rocket 4.3 16:38:07 10° N 16:44:10 75° E 16:50:14 10° S
ARIANE 5 DEB (SYLDA) 3.8 16:49:28 10° WNW 16:49:39 12° WNW 16:49:39 12° WNW
ATLAS CENTAUR R/B 2.7 16:46:32 10° SW 16:50:56 47° WNW 16:55:35 10° N
Aureole 1 Rocket 4.0 16:50:25 10° N 16:51:34 20° N 16:51:34 20° N
Cosmos 2227 4.2 16:57:48 10° S 17:03:18 56° ESE 17:04:36 45° ENE
ASTEX 1 3.6 16:58:29 10° N 17:03:21 71° W 17:08:18 10° SSW
Cosmos 2181 Rocket 4.4 17:00:57 10° SSW 17:07:02 62° W 17:13:09 10° N
Cosmos 1805 3.4 17:04:29 10° S 17:08:23 73° W 17:09:31 43° NNW
SWIFT 2.3 17:04:52 10° WNW 17:09:05 74° SSW 17:09:05 74° SSW
Cosmos 2333 Rocket 2.1 17:04:49 10° N 17:10:31 73° ENE 17:13:10 33° SSE
Atlas Centaur 2 3.0 17:08:13 10° W 17:11:12 22° NW 17:11:47 21° NNW
COSMOS 2455 3.1 17:06:41 10° NNW 17:12:38 68° WSW 17:18:34 10° SSE
ATLAS 2AS CENTAUR R/B 3.5 17:09:35 10° N 17:13:43 31° NNE 17:13:43 31° NNE
Ariane H10+ 2.2 17:12:43 10° W 17:16:23 41° WSW 17:16:23 41° WSW
Ariane H10+ 4.5 17:00:23 10° W 17:18:09 83° N 17:21:29 48° E
NOAA 11 4.1 17:16:17 10° S 17:21:49 84° WSW 17:27:18 10° NNW
ARIANE 5 DEB (SYLDA) 4.0 17:25:39 10° WNW 17:31:16 51° NW 17:31:16 51° NW
IRS-1A Rocket 4.2 17:32:23 83° NNW 17:32:23 83° NNW 17:37:53 10° NNW
Cosmos 2219 Rocket 2.6 17:31:19 10° NNW 17:36:49 58° WSW 17:38:28 42° SSW
Cosmos 2341 Rocket 3.9 17:32:04 10° N 17:38:15 80° W 17:44:30 10° S
Hubble Space Telescope 3.7 17:49:49 10° WNW 17:50:45 14° WNW 17:50:45 14° WNW
Cosmos 2263 Rocket 3.7 17:54:44 10° SSW 17:57:32 29° SW 17:57:32 29° SW
COSMOS 2428 4.3 17:56:17 10° NW 18:01:12 30° WSW 18:02:56 26° SW
CZ-3B R/B 3.9 17:42:26 10° WSW 18:02:35 56° NW 18:06:20 44° NNE
ATLAS 5 CENTAUR R/B 4.1 18:16:05 10° WSW 18:25:21 88° NNW 19:28:58 10° ENE
